Location: Obersdorf
(47.4079°N, 10.2781°E)
Time: 07:47:00
(UTC+01:00)

AO-109 - Pass Details

Date: 05 December 2021
Orbit: 478 x 515 km, 60.7° (Epoch: 22 January)

Event Time Altitude Azimuth Distance (km) Brightness Sun altitude
Exits shadow 06:57:01 11° 277° (W) 1,611 ? -8.7°
Maximum altitude 06:59:09 16° 240° (WSW) 1,324 ? -8.4°
Drops below altitude 10° 07:01:28 10° 202° (SSW) 1,648 ? -8.0°
Sets 07:04:13 0° 180° (S) 2,524 ? -7.6°
